Barcelona, Spain

7:23 AM CEST en Octubre 19, 2017 (GMT +0200)
El Prat

Tiempo Historia de LEBL - Mayo, 2017

Change the Weather History Date:

Viernes, Mayo 19, 2017

  Actual Average Record
Temperature  
Temperatura media 62 ° F -  
Temperatura máxima 70 ° F 72 ° F 73 ° F (2003)
Temperatura mínima 53 ° F 60 ° F 53 ° F (1999)
Degree Days  
Grados día de calefacción 4    
Growing Degree Days 12 (Base 50)    
Moisture  
Punto de rocío 48 ° F    
Average Humidity 57    
Maximum Humidity 73    
Minimum Humidity 26    
Precipitación  
Precipitación 0.00 pul 0.06 pul - ()
Presión al nivel del mar  
Presión al nivel del mar 30.07 pul    
Viento  
Velocidad del viento 11 mph ()    
Velocidad máxima del viento 20 mph    
Max Gust Speed -    
Visibilidad 10.4 Millas    
Eventos      
Averages and records for this station are not official NWS values.
T = Trace of Precipitation, MM = Missing Value Source: Averaged Metar Reports

Daily Weather History Graph

Daily Weather History Graph

Search for Another Location

Airport or City:

Trip Planner

Search our weather history database for the weather conditions in past years. The results will help you decide how hot, cold, wet, or windy it might be!

Date:

Astronomía

May. 19, 2017 Salida Puesta
Hora real 6:29 AM CEST 9:07 PM CEST
Crepúsculo civil 5:57 AM CEST 9:39 PM CEST
Crepúsculo náutico 5:17 AM CEST 10:19 PM CEST
Crepúsculo astronómico 4:32 AM CEST 11:04 PM CEST
Luna 2:49 AM CEST 1:49 PM CEST
Horas de luz 15h 41m
Horas de luz
14h 37m
Cuarto menguante, 46% of the Moon is Illuminated
May 19
Cuarto menguante
May 25
Nueva
Jun 1
Cuarto creciente
Jun 9
Luna llena
Jun 17
Cuarto menguante

Hourly Weather History & Observations

Hora (CEST) Temp. Punto de rocío Humedad Presión Visibilidad Wind Dir Velocidad del viento Velocidad de ráfagas Precip Eventos Condiciones
12:00 AM 61 ° F 50 ° F 57% 30.00 pul 19 mi NNO 13.8 mph - -  
12:00 AM 60.8 ° F 50.0 ° F 68% 29.98 pul 6.2 mi NNO 11.5 mph - N/A   Parcialmente nublado
12:30 AM 60.8 ° F 48.2 ° F 63% 30.01 pul 6.2 mi NNO 13.8 mph - N/A   Parcialmente nublado
1:00 AM 60 ° F 48 ° F 54% 30.01 pul 19 mi Norte 10.4 mph - -  
1:00 AM 59.0 ° F 48.2 ° F 67% 30.01 pul 6.2 mi ONO 12.7 mph - N/A   Parcialmente nublado
1:30 AM 59.0 ° F 46.4 ° F 63% 30.01 pul 6.2 mi NO 12.7 mph - N/A   Parcialmente nublado
2:00 AM 59 ° F 46 ° F 52% 30.01 pul 19 mi NO 9.2 mph - -   Nubes dispersas
2:00 AM 59.0 ° F 46.4 ° F 63% 30.01 pul 6.2 mi ONO 6.9 mph - N/A   Parcialmente nublado
2:30 AM 57.2 ° F 46.4 ° F 67% 30.01 pul 6.2 mi ONO 5.8 mph - N/A   Parcialmente nublado
3:00 AM 58 ° F 46 ° F 54% 30.02 pul 19 mi NO 6.9 mph - -  
3:00 AM 57.2 ° F 44.6 ° F 63% 30.01 pul 6.2 mi NO 9.2 mph - N/A   Parcialmente nublado
3:30 AM 57.2 ° F 44.6 ° F 63% 30.01 pul 6.2 mi NO 8.1 mph - N/A   Parcialmente nublado
4:00 AM 56 ° F 46 ° F 59% 30.03 pul 19 mi Norte 5.8 mph - -  
4:00 AM 55.4 ° F 44.6 ° F 67% 30.01 pul 6.2 mi NNO 6.9 mph - N/A   Parcialmente nublado
4:30 AM 55.4 ° F 44.6 ° F 67% 30.01 pul 6.2 mi NO 10.4 mph - N/A   Parcialmente nublado
5:00 AM 55 ° F 45 ° F 59% 30.04 pul 19 mi Norte 4.6 mph - -   Nubes dispersas
5:00 AM 55.4 ° F 44.6 ° F 67% 30.04 pul 6.2 mi NO 9.2 mph - N/A   Parcialmente nublado
5:30 AM 55.4 ° F 44.6 ° F 67% 30.04 pul 6.2 mi NO 11.5 mph - N/A   Parcialmente nublado
6:00 AM 54 ° F 45 ° F 63% 30.05 pul 19 mi NNO 5.8 mph - -  
6:00 AM 53.6 ° F 44.6 ° F 72% 30.04 pul 6.2 mi NO 11.5 mph - N/A   Parcialmente nublado
6:30 AM 53.6 ° F 44.6 ° F 72% 30.04 pul 6.2 mi NO 10.4 mph - N/A   Parcialmente nublado
7:00 AM 55 ° F 44 ° F 58% 30.06 pul 19 mi NNO 8.1 mph - -  
7:00 AM 53.6 ° F 44.6 ° F 72% 30.04 pul 6.2 mi NO 9.2 mph - N/A   Parcialmente nublado
7:30 AM 55.4 ° F 44.6 ° F 67% 30.06 pul 6.2 mi NO 10.4 mph - N/A   Parcialmente nublado
8:00 AM 55.4 ° F 44.6 ° F 67% 30.06 pul 6.2 mi NO 10.4 mph - N/A   Parcialmente nublado
8:30 AM 57.2 ° F 44.6 ° F 63% 30.09 pul 6.2 mi NO 10.4 mph - N/A   Parcialmente nublado
9:00 AM 60 ° F 46 ° F 49% 30.09 pul 17 mi Norte 8.1 mph - -  
9:00 AM 59.0 ° F 44.6 ° F 59% 30.09 pul 6.2 mi NNO 11.5 mph - N/A   Parcialmente nublado
9:30 AM 60.8 ° F 44.6 ° F 55% 30.09 pul 6.2 mi NNO 6.9 mph - N/A   Parcialmente nublado
10:00 AM 64 ° F 45 ° F 38% 30.10 pul 19 mi SO 6.9 mph - -  
10:00 AM 62.6 ° F 46.4 ° F 55% 30.09 pul 6.2 mi ONO 4.6 mph - N/A   Parcialmente nublado
10:30 AM 64.4 ° F 44.6 ° F 49% 30.09 pul 6.2 mi SO 5.8 mph - N/A   Parcialmente nublado
11:00 AM 65 ° F 46 ° F 38% 30.10 pul 19 mi SO 17.3 mph - -  
11:00 AM 64.4 ° F 44.6 ° F 49% 30.09 pul 6.2 mi ONO 6.9 mph - N/A   Parcialmente nublado
11:30 AM 66.2 ° F 44.6 ° F 46% 30.09 pul 6.2 mi SO 15.0 mph - N/A   Parcialmente nublado
12:00 PM 68 ° F 41 ° F 26% 30.11 pul 19 mi SO 16.1 mph - -  
12:00 PM 64.4 ° F 44.6 ° F 49% 30.09 pul 6.2 mi SO 18.4 mph - N/A   Parcialmente nublado
12:30 PM 64.4 ° F 44.6 ° F 49% 30.09 pul 6.2 mi SO 18.4 mph - N/A   Parcialmente nublado
1:00 PM 67 ° F 49 ° F 41% 30.11 pul 19 mi OSO 19.6 mph - -  
1:00 PM 66.2 ° F 48.2 ° F 52% 30.09 pul 6.2 mi SO 18.4 mph - N/A   Parcialmente nublado
1:30 PM 66.2 ° F 50.0 ° F 56% 30.09 pul 6.2 mi SO 18.4 mph - N/A   Parcialmente nublado
2:00 PM 67 ° F 49 ° F 43% 30.11 pul 19 mi SO 18.4 mph - -   Nubes dispersas
2:00 PM 66.2 ° F 50.0 ° F 56% 30.09 pul 6.2 mi SSO 16.1 mph - N/A   Parcialmente nublado
2:30 PM 64.4 ° F 50.0 ° F 59% 30.09 pul 6.2 mi SSO 16.1 mph - N/A   Parcialmente nublado
3:00 PM 67 ° F 49 ° F 42% 30.10 pul 19 mi SO 16.1 mph - -  
3:00 PM 66.2 ° F 50.0 ° F 56% 30.09 pul 6.2 mi Sur 15.0 mph - N/A   Parcialmente nublado
3:30 PM 66.2 ° F 50.0 ° F 56% 30.09 pul 6.2 mi SSO 16.1 mph - N/A   Parcialmente nublado
4:00 PM 69 ° F 52 ° F 43% 30.10 pul 19 mi SSO 13.8 mph - -  
4:00 PM 68.0 ° F 51.8 ° F 56% 30.09 pul 6.2 mi Sur 13.8 mph - N/A   Parcialmente nublado
4:30 PM 66.2 ° F 51.8 ° F 60% 30.06 pul 6.2 mi Sur 15.0 mph - N/A   Parcialmente nublado
5:00 PM 69 ° F 51 ° F 41% 30.09 pul 17 mi SSO 15.0 mph - -   Nubes dispersas
5:00 PM 68.0 ° F 50.0 ° F 52% 30.06 pul 6.2 mi Sur 15.0 mph - N/A   Parcialmente nublado
5:30 PM 68.0 ° F 50.0 ° F 52% 30.06 pul 6.2 mi Sur 13.8 mph - N/A   Parcialmente nublado
6:00 PM 69 ° F 52 ° F 45% 30.08 pul 19 mi Sur 12.7 mph - -  
6:00 PM 68.0 ° F 53.6 ° F 60% 30.06 pul 6.2 mi Sur 13.8 mph - N/A   Parcialmente nublado
6:30 PM 66.2 ° F 51.8 ° F 60% 30.06 pul 6.2 mi Sur 10.4 mph - N/A   Parcialmente nublado
7:00 PM 69 ° F 54 ° F 48% 30.09 pul 19 mi Sur 11.5 mph - -  
7:00 PM 66.2 ° F 53.6 ° F 64% 30.06 pul 6.2 mi Sur 12.7 mph - N/A   Parcialmente nublado
7:30 PM 68.0 ° F 51.8 ° F 56% 30.06 pul 6.2 mi Sur 11.5 mph - N/A   Parcialmente nublado
8:00 PM 68 ° F 52 ° F 45% 30.09 pul 19 mi SSO 11.5 mph - -   Nubes dispersas
8:00 PM 66.2 ° F 51.8 ° F 60% 30.09 pul 6.2 mi SSO 10.4 mph - N/A   Parcialmente nublado
8:30 PM 66.2 ° F 53.6 ° F 64% 30.09 pul 6.2 mi SSO 12.7 mph - N/A   Parcialmente nublado
9:00 PM 66.2 ° F 55.4 ° F 68% 30.09 pul - Sur 10.4 mph - N/A   Despejado
9:30 PM 66.2 ° F 55.4 ° F 68% 30.09 pul - SSO 10.4 mph - N/A   Despejado
10:00 PM 66 ° F 56 ° F 62% 30.13 pul 19 mi OSO 8.1 mph - -  
10:00 PM 64.4 ° F 55.4 ° F 73% 30.12 pul - SSO 12.7 mph - N/A   Despejado
10:30 PM 64.4 ° F 55.4 ° F 73% 30.12 pul - SSO 11.5 mph - N/A   Despejado
11:00 PM 62.6 ° F 53.6 ° F 72% 30.15 pul - SO 10.4 mph - N/A   Despejado
11:30 PM 64.4 ° F 50.0 ° F 59% 30.15 pul - SSO 6.9 mph - N/A   Despejado